CAPE
5 1 0 1 0 0 0 1 1 1 0 0 0 0 0 0 0 0 0 0 0 0 0 0 0 0 0 0 0 0 0 0 0 0 0 0 0 0 0 0 0 0 0
5 0 3 5 2 0 0 1 1 4 3 0 0 0 0 0 0 0 0 0 0 0 0 0 0 0 0 0 0 0 0 0 0 0 0 0 0 0 0 0 0 0 0
0 3 4 3 2 1 0 4 2 1 0 0 0 0 0 0 0 0 0 0 0 0 0 0 0 0 0 0 0 0 0 0 0 0 0 0 0 0 0 0 0 0 0
0 2 1 3 1 2 2 1 2 0 0 0 0 0 0 0 0 0 0 0 0 0 0 0 0 0 0 0 0 0 0 0 0 0 0 0 0 0 0 0 0 0 0
55 15 1 1 2 3 0 0 0 0 0 0 0 0 0 0 0 0 0 0 0 0 0 0 0 9 11 2 0 0 0 0 0 0 0 0 0 0 0 0 0 0 0
2 30 22 23 11 1 0 0 0 0 0 0 0 0 0 0 0 0 0 0 0 0 0 0 21 39 18 28 0 0 0 0 0 0 0 0 0 0 0 0 0 0 1
107 37 39 4 0 0 0 0 0 0 0 0 0 5 1 1 3 0 0 0 0 0 0 0 48 11 13 14 13 0 0 0 0 0 0 0 0 0 0 0 0 0 0
169 83 19 0 2 0 7 4 5 17 22 32 19 25 19 29 16 3 0 0 0 36 40 32 29 65 76 63 72 46 0 0 0 0 0 0 0 0 0 0 0 0 0
6 24 6 4 22 22 12 17 12 11 17 22 32 11 22 14 12 15 0 3 0 7 35 68 66 58 74 136 85 50 0 0 0 0 0 0 0 0 0 0 0 0 0
11 30 28 7 9 13 9 20 11 11 23 14 25 34 7 0 0 0 0 40 31 2 36 34 60 73 114 49 47 27 4 0 0 0 0 0 0 0 0 4 0 0 0
0 0 0 2 1 0 4 18 24 21 15 17 4 0 0 48 28 31 21 22 52 28 16 0 1 0 4 9 16 36 13 0 0 0 0 0 0 0 28 27 4 7 0
0 0 0 8 7 24 37 72 109 24 13 0 0 1 41 102 126 55 21 12 23 40 9 0 1 0 0 0 0 0 0 0 0 0 0 0 0 0 6 2 1 0 2
46 30 31 60 99 3 15 21 12 0 0 2 6 12 24 169 140 153 30 11 1 4 24 6 7 0 0 0 0 0 0 0 0 0 0 0 0 0 5 0 0 78 63
323 298 221 167 150 166 111 148 154 18 13 12 12 18 40 27 16 6 25 20 1 5 4 9 8 19 40 39 29 3 0 0 0 0 0 0 0 4 0 10 1 16 21
318 173 37 22 9 1 38 0 0 0 0 0 0 0 0 0 0 0 0 0 0 0 0 0 0 0 0 12 52 84 104 55 0 2 1 2 0 0 0 4 4 8 19
293 28 0 0 0 1 2 8 5 0 0 0 0 0 0 0 0 0 0 0 0 0 0 0 0 0 0 0 9 82 141 161 332 120 42 24 11 15 19 11 15 7 22
338 0 0 0 0 11 11 10 6 0 0 0 0 0 0 0 0 0 0 0 0 0 0 0 0 34 47 52 69 151 73 15 1 0 0 0 0 0 1 21 11 33 32
139 0 0 0 0 2 11 15 16 20 12 0 0 0 0 0 0 0 0 0 0 2 0 0 0 32 26 52 45 69 36 5 0 0 0 0 0 0 0 4 2 5 0
2 0 0 5 16 14 1 0 0 0 0 0 17 61 38 11 0 0 0 0 14 10 3 3 2 4 0 0 52 53 3 11 3 0 0 0 0 0 0 0 1 0 2
4 2 2 0 0 0 0 0 2 5 21 53 132 181 160 89 53 31 0 12 6 4 15 29 0 0 0 3 1 8 24 10 8 0 0 0 1 4 5 9 6 7 0
20 21 17 5 0 1 0 2 1 16 62 25 25 54 46 4 18 98 122 127 69 88 48 15 1 15 32 14 1 10 18 4 2 1 0 0 2 1 4 5 13 16 24
9 4 4 6 15 18 26 34 68 73 51 72 44 64 0 0 0 27 96 66 64 40 63 62 66 47 16 17 6 9 2 2 0 0 0 0 0 0 2 1 4 8 2
0 0 1 2 8 14 18 17 40 80 15 1 23 102 38 23 57 71 57 64 31 11 11 11 25 33 28 10 25 9 3 0 0 0 0 0 0 0 0 5 1 0 5
7 21 39 55 49 110 192 380 98 39 3 39 36 13 0 8 8 8 17 18 14 8 21 26 20 19 18 22 28 0 0 0 0 0 0 0 0 0 0 0 8 23 19
65 92 97 130 242 312 175 11 32 93 18 7 0 0 0 0 0 0 8 9 15 25 8 23 26 53 31 52 30 0 0 0 0 0 0 0 0 0 0 0 17 18 7
9 50 20 12 0 12 36 51 6 10 1 0 0 0 0 0 0 0 4 13 16 25 10 15 22 21 47 3 0 0 0 0 0 0 0 0 0 0 0 6 12 18 12
CIN
-0 -0 -0 -0 -0 -0 -0 -0 -0 -0 -0 -0 -0 -0 -0 -0 -0 -0 -0 -0 -0 -0 -0 -0 -0 -0 -0 -0 -0 -0 -0 -0 -0 -0 -0 -0 -0 -0 -0 -0 -0 -0 -0
-337 -0 -0 -0 -0 -0 -0 -0 -0 -0 -0 -0 -0 -0 -0 -0 -0 -0 -0 -0 -0 -0 -0 -0 -0 -0 -0 -0 -0 -0 -0 -0 -0 -0 -0 -0 -0 -0 -0 -0 -0 -0 -0
-0 -0 -0 -0 -0 -0 -0 -0 -0 -0 -0 -0 -0 -0 -0 -0 -0 -0 -0 -0 -0 -0 -0 -0 -0 -0 -0 -0 -0 -0 -0 -0 -0 -0 -0 -0 -0 -0 -0 -0 -0 -0 -0
-2 -0 -0 -0 -0 -0 -0 -0 -0 -0 -0 -0 -0 -0 -0 -0 -0 -0 -0 -0 -0 -0 -0 -0 -0 -0 -0 -0 -0 -0 -0 -0 -0 -0 -0 -0 -0 -0 -0 -0 -0 -0 -0
-243 -303 -99 -1 -0 -0 -0 -0 -0 -0 -0 -0 -0 -0 -0 -0 -0 -0 -0 -0 -0 -0 -0 -0 -0 -2 -8 -9 -0 -0 -0 -0 -0 -0 -0 -0 -0 -0 -0 -0 -0 -0 -0
-19 -174 -189 -197 -245 -1 -0 -0 -0 -0 -0 -0 -0 -0 -0 -0 -0 -0 -0 -0 -0 -0 -0 -0 -10 -9 -8 -8 -0 -0 -0 -0 -0 -0 -0 -0 -0 -0 -0 -0 -0 -0 -0
-109 -102 -85 -19 -0 -0 -0 -0 -0 -0 -0 -0 -0 -2 -1 -1 -5 -0 -0 -0 -0 -0 -0 -0 -22 -4 -4 -20 -4 -0 -0 -0 -0 -0 -0 -0 -0 -0 -0 -0 -0 -0 -0
-39 -71 -131 -0 -47 -0 -6 -8 -5 -3 -2 -4 -3 -2 -6 -6 -6 -6 -0 -0 -0 -22 -26 -26 -20 -23 -22 -14 -8 -18 -0 -0 -0 -0 -0 -0 -0 -0 -0 -0 -0 -0 -0
-172 -98 -122 -43 -62 -7 -8 -5 -5 -6 -2 -3 -9 -14 -10 -7 -12 -8 -1 -1 -0 -3 -20 -22 -26 -27 -25 -14 -23 -27 -0 -0 -0 -0 -0 -0 -0 -0 -0 -0 -0 -0 -0
-122 -78 -72 -2 -1 -1 -2 -2 -2 -2 -4 -6 -7 -4 -4 -0 -0 -0 -0 -10 -5 -1 -8 -7 -7 -11 -30 -22 -25 -38 -44 -0 -0 -0 -0 -0 -0 -0 -4 -27 -0 -0 -0
-0 -0 -0 -1 -1 -0 -6 -4 -2 -2 -2 -3 -1 -0 -0 -56 -33 -33 -34 -22 -70 -25 -12 -1 -2 -0 -26 -41 -36 -30 -40 -0 -0 -0 -0 -0 -0 -0 -4 -33 -45 -32 -0
-0 -0 -0 -34 -58 -38 -121 -74 -44 -34 -15 -0 -0 -12 -54 -64 -50 -61 -47 -64 -52 -53 -27 -0 -6 -0 -0 -0 -0 -0 -0 -0 -0 -0 -0 -0 -0 -0 -3 -6 -5 -0 -17
-65 -70 -75 -60 -47 -1 -4 -15 -1 -0 -0 -22 -29 -20 -18 -42 -47 -46 -77 -44 -29 -61 -45 -29 -33 -0 -0 -0 -0 -0 -0 -0 -0 -0 -0 -0 -0 -0 -14 -0 -0 -9 -9
-1 -4 -18 -44 -53 -48 -70 -48 -27 -22 -21 -8 -18 -20 -58 -5 -5 -10 -18 -29 -29 -67 -61 -74 -50 -36 -37 -48 -52 -9 -0 -0 -0 -0 -0 -0 -0 -24 -0 -27 -2 -7 -4
-6 -35 -63 -75 -96 -2 -44 -0 -0 -0 -0 -0 -0 -0 -0 -0 -0 -0 -0 -0 -0 -0 -0 -0 -0 -0 -0 -20 -25 -16 -46 -61 -0 -58 -70 -86 -0 -0 -0 -28 -29 -14 -3
-1 -30 -0 -0 -2 -1 -2 -25 -15 -0 -0 -0 -0 -0 -0 -0 -0 -0 -0 -0 -0 -0 -0 -0 -0 -0 -0 -0 -25 -22 -15 -3 -12 -52 -69 -75 -79 -58 -37 -18 -38 -18 -12
-4 -0 -0 -0 -0 -3 -4 -4 -2 -0 -0 -0 -0 -0 -0 -0 -0 -0 -0 -0 -0 -0 -0 -0 -0 -56 -69 -67 -42 -15 -55 -66 -58 -0 -0 -0 -0 -0 -1 -14 -33 -31 -27
-10 -0 -0 -0 -0 -5 -7 -6 -2 -1 -2 -0 -0 -0 -0 -0 -0 -0 -0 -0 -0 -7 -4 -0 -2 -11 -5 -31 -58 -40 -36 -64 -0 -0 -0 -0 -0 -0 -0 -0 -36 -19 -0
-3 -0 -0 -6 -7 -4 -1 -0 -0 -0 -0 -0 -31 -25 -45 -76 -0 -0 -0 -0 -86 -139 -57 -67 -81 -53 -0 -0 -4 -3 -15 -40 -33 -0 -0 -0 -0 -0 -6 -12 -0 -0 -29
-4 -9 -10 -0 -0 -0 -0 -0 -13 -17 -62 -51 -16 -12 -38 -66 -82 -50 -0 -120 -134 -124 -109 -109 -0 -0 -0 -78 -0 -30 -45 -31 -13 -0 -0 -0 -1 -2 -8 -23 -0 -0 -0
-1 -1 -4 -12 -0 -22 -0 -30 -5 -25 -38 -9 -21 -52 -43 -65 -47 -44 -32 -63 -87 -35 -18 -30 -1 -51 -24 -33 -16 -31 -22 -8 -2 -2 -0 -0 -1 -3 -3 -2 -1 -0 -0
-1 -1 -2 -4 -6 -8 -18 -12 -31 -7 -12 -16 -56 -45 -39 -0 -0 -64 -51 -21 -11 -16 -3 -1 -1 -2 -4 -3 -4 -1 -2 -2 -1 -0 -0 -0 -0 -0 -2 -1 -5 -1 -1
-0 -0 -0 -1 -7 -7 -6 -26 -28 -56 -126 -58 -46 -40 -109 -86 -34 -35 -48 -18 -23 -10 -23 -14 -7 -4 -7 -13 -4 -3 -6 -0 -0 -0 -0 -0 -0 -0 -0 -3 -2 -0 -2
-53 -27 -19 -12 -11 -8 -8 -22 -90 -106 -60 -60 -42 -97 -3 -47 -31 -36 -26 -11 -11 -11 -33 -9 -12 -7 -7 -4 -1 -0 -0 -0 -0 -0 -0 -0 -0 -0 -0 -0 -1 -6 -7
-11 -5 -4 -25 -27 -8 -47 -107 -60 -21 -17 -43 -0 -0 -0 -0 -0 -0 -38 -41 -22 -20 -9 -3 -3 -6 -6 -10 -2 -0 -0 -0 -0 -0 -0 -0 -0 -0 -0 -0 -4 -3 -8
-13 -9 -83 -59 -0 -79 -27 -13 -69 -61 -35 -0 -0 -0 -0 -0 -0 -0 -49 -38 -34 -18 -26 -23 -25 -24 -11 -28 -0 -0 -0 -0 -0 -0 -0 -0 -0 -0 -0 -4 -2 -4 -1
Wind_Speed
18 17 17 13 14 16 17 16 15 13 12 12 12 11 12 12 12 11 12 11 15 12 12 11 10 11 20 27 29 28 31 33 37 38 37 37 38 39 38 38 38 40 41
19 15 12 11 13 15 14 14 13 13 13 13 13 13 15 14 12 11 11 14 14 14 13 15 15 15 23 25 26 29 32 34 36 42 39 40 41 36 40 41 40 40 41
16 12 12 11 11 12 12 13 14 13 15 15 14 14 14 12 12 14 14 17 18 19 17 20 21 24 25 26 28 31 33 35 35 39 43 40 39 39 40 40 42 42 41
13 13 12 12 12 13 13 13 13 13 14 13 14 14 13 13 14 14 15 17 18 20 23 23 27 27 28 28 29 32 33 37 38 39 41 41 40 39 41 43 44 42 44
13 13 12 12 12 13 13 13 13 13 13 15 15 15 16 16 15 13 16 17 18 20 22 23 24 25 25 24 26 29 30 34 36 38 39 41 41 42 44 43 45 45 43
13 13 12 12 12 13 13 13 14 14 14 15 16 16 16 16 16 14 14 17 20 22 23 23 24 23 22 21 23 23 25 30 33 33 36 39 41 41 42 42 44 44 44
13 12 12 13 13 13 13 14 14 15 15 14 14 13 15 14 12 11 13 15 17 19 21 23 24 23 23 19 19 19 23 27 29 32 34 36 39 39 39 41 39 39 42
12 13 12 11 11 11 11 11 12 13 12 13 16 17 19 20 20 16 14 16 19 20 20 21 19 19 20 21 21 21 21 22 21 20 22 23 25 27 32 33 36 35 32
12 12 11 10 10 8 8 10 12 14 16 17 19 21 21 20 20 17 15 14 16 16 10 9 9 10 9 8 13 14 14 16 18 16 16 21 20 12 13 21 28 34 38
12 12 12 13 13 13 16 15 15 13 9 2 2 6 10 1 2 4 3 3 3 4 5 6 6 6 6 7 9 10 10 10 13 16 19 21 18 16 11 13 20 23 30
13 12 12 12 12 12 11 12 12 10 10 9 8 0 4 3 6 6 5 2 3 5 7 10 17 25 21 10 7 10 11 11 15 18 18 18 17 15 19 17 15 19 31
12 11 11 9 8 12 7 8 6 9 6 3 1 4 4 5 7 8 7 6 6 4 5 5 8 10 14 13 12 11 12 12 14 14 16 16 16 15 21 21 23 18 18
11 10 9 10 9 10 8 4 3 3 0 1 2 1 2 4 9 2 6 7 9 9 8 9 10 10 12 13 12 12 13 13 13 12 13 12 11 11 17 19 17 14 15
9 6 5 4 3 2 2 1 1 2 1 2 3 4 7 13 11 8 11 12 8 7 10 13 15 16 16 16 17 17 16 15 15 15 15 13 12 12 15 14 17 23 22
11 11 9 5 3 2 1 1 1 1 0 5 10 6 4 4 4 7 10 13 16 19 20 22 22 22 22 23 22 22 20 18 18 18 17 16 17 17 18 15 18 20 20
14 14 9 7 10 14 7 8 6 7 6 5 6 6 4 5 7 9 10 11 12 18 22 23 24 25 27 28 28 27 25 24 22 21 22 21 22 24 22 20 21 23 23
13 11 13 19 12 14 11 5 5 3 7 11 13 13 12 12 12 12 13 18 32 35 37 40 37 32 33 32 33 37 30 30 30 31 30 29 35 36 38 31 28 30 29
11 7 5 3 2 1 2 2 6 9 13 13 10 8 11 14 16 17 22 28 29 32 29 42 36 32 47 34 38 40 41 39 36 33 40 38 37 34 41 36 39 37 37
7 5 2 2 1 3 10 9 5 4 6 8 10 13 14 14 19 19 17 20 25 26 28 28 27 29 35 36 39 35 33 37 32 33 35 35 36 35 34 38 42 42 40
1 7 7 2 0 1 2 3 5 7 9 11 12 19 28 33 31 35 23 22 27 29 31 31 32 34 31 29 33 36 36 37 33 36 35 35 33 32 33 35 37 37 35
4 7 4 4 5 5 5 6 8 10 12 16 18 19 21 28 39 30 24 27 28 30 30 31 32 32 29 28 30 34 34 33 31 31 31 35 35 35 35 35 34 34 32
1 3 3 3 4 4 5 8 10 14 19 25 33 32 27 32 23 22 19 28 29 30 29 31 32 31 30 31 31 29 28 29 31 31 32 33 32 32 32 33 34 34 33
1 1 3 4 5 6 13 27 13 29 35 46 20 25 32 26 24 27 33 33 36 36 36 35 32 30 29 27 23 26 27 26 29 32 33 35 35 34 34 31 31 31 30
2 2 4 7 9 9 20 33 30 33 31 16 22 29 31 32 33 33 33 32 31 33 34 31 29 29 26 26 26 21 23 26 29 31 34 35 36 36 35 34 32 30 31
4 10 10 30 36 17 27 19 11 19 24 28 32 33 34 34 36 33 30 30 30 32 33 29 27 24 28 21 19 19 21 25 28 32 35 37 37 35 32 32 32 29 30
8 12 23 28 28 9 13 22 27 29 31 32 33 33 32 32 31 31 31 31 31 31 31 31 30 32 31 25 20 18 20 25 29 33 36 38 37 35 33 35 33 33 34
Wind_Direction
335 341 344 355 8 19 24 27 30 35 34 33 29 34 20 4 358 358 356 8 335 16 22 30 27 15 328 311 311 320 317 313 306 307 312 315 315 314 314 318 318 315 313
337 346 359 8 8 9 18 26 29 22 19 21 16 359 348 347 356 1 2 351 346 354 5 358 357 357 325 317 319 318 319 319 313 303 311 312 311 317 316 315 316 316 314
354 5 2 1 8 14 15 14 11 11 0 360 3 358 359 355 351 340 340 333 330 331 334 329 325 321 320 317 318 317 320 319 319 310 306 312 313 315 316 317 315 315 314
6 4 4 6 2 359 5 9 11 9 2 0 354 351 353 351 346 342 336 332 330 326 320 321 315 313 312 314 315 316 317 314 314 310 309 309 313 315 314 315 314 317 313
2 1 357 359 6 5 4 7 7 12 7 356 347 341 339 337 336 339 334 332 329 327 324 324 323 321 322 320 322 322 323 320 319 315 312 310 310 311 310 312 309 314 315
9 6 6 3 0 358 357 359 360 357 356 346 341 337 336 336 336 337 334 328 324 324 323 325 324 324 325 322 325 328 330 330 326 324 321 315 314 313 313 312 312 313 314
22 18 356 355 354 352 352 352 347 347 346 346 345 344 341 341 338 338 335 330 328 326 323 324 324 326 329 333 333 334 334 332 329 324 320 318 315 315 314 314 315 317 315
22 20 27 21 12 3 1 4 1 353 353 351 343 338 330 329 329 332 332 328 326 324 325 324 326 328 329 329 328 328 335 341 344 341 334 334 334 332 322 322 321 323 328
9 11 14 16 17 26 21 8 1 354 347 343 335 329 326 327 328 330 333 332 329 327 327 325 320 317 313 313 330 333 332 336 342 340 339 335 333 317 319 331 328 323 321
11 9 1 355 353 353 344 352 355 1 12 54 64 30 1 313 286 233 251 308 286 266 253 254 270 289 293 309 314 320 317 312 333 336 335 335 333 329 303 323 331 332 328
10 8 2 1 354 354 10 8 7 13 10 8 8 335 222 228 213 217 216 262 274 307 326 335 338 332 338 337 300 306 301 306 325 327 324 327 329 330 337 339 336 331 324
22 20 14 23 23 356 26 19 30 15 16 23 258 239 228 229 226 218 215 218 228 252 253 290 317 327 333 328 320 291 280 295 310 308 315 315 320 324 331 331 330 328 329
34 35 31 9 6 4 7 18 22 21 175 11 20 349 325 10 18 222 238 246 243 247 263 272 282 300 302 312 299 293 295 305 300 300 304 307 303 314 329 328 328 328 329
43 80 103 98 97 78 106 162 348 218 231 323 334 326 355 359 357 353 356 351 334 303 288 301 304 302 303 294 299 302 299 292 288 289 292 296 300 308 317 322 329 329 329
17 13 15 27 34 59 135 148 112 87 39 355 351 337 268 291 300 331 332 332 331 330 327 324 320 315 312 311 309 307 304 296 294 291 289 290 287 292 296 301 314 323 319
358 357 10 15 6 356 7 1 210 218 222 229 234 240 264 273 272 273 278 287 293 326 326 321 317 314 311 310 310 309 308 309 301 295 295 289 292 289 291 294 306 309 311
360 4 354 342 0 354 3 15 0 353 233 240 245 250 259 263 272 279 283 321 328 326 326 323 317 314 311 309 309 310 313 317 324 333 316 325 323 325 307 298 297 303 302
1 13 22 38 95 160 200 342 351 349 350 346 343 274 264 264 268 272 322 325 330 324 322 334 316 322 312 316 313 308 304 318 323 324 310 315 317 316 309 306 302 306 306
7 28 114 175 237 347 354 348 327 292 282 291 317 329 328 311 322 325 329 325 328 321 325 329 326 319 320 323 316 310 324 323 328 328 324 323 320 318 305 296 299 303 305
215 205 204 196 44 333 267 274 297 294 293 304 320 335 339 331 333 325 330 330 331 329 328 331 330 329 328 323 317 316 323 324 329 326 328 329 328 323 316 309 308 311 311
208 214 215 214 229 241 271 282 281 290 311 331 323 332 335 340 335 330 328 337 337 337 335 334 333 333 332 333 330 325 326 329 335 335 333 327 326 322 321 319 319 320 322
205 209 220 241 326 313 304 301 300 321 325 335 332 339 343 338 339 329 334 346 342 340 339 337 335 334 334 334 334 335 337 337 336 335 334 331 330 328 327 324 321 321 321
136 284 324 313 286 293 336 337 310 340 338 313 337 348 347 353 349 346 339 339 339 340 339 337 337 336 338 339 343 339 339 342 339 337 334 330 328 327 324 325 327 325 323
187 274 268 258 264 306 340 338 340 346 345 350 355 351 348 346 343 342 341 343 346 347 349 347 344 341 342 340 337 347 345 343 341 339 335 331 328 326 325 322 323 322 322
285 329 334 327 309 341 346 355 343 6 1 354 349 349 347 346 347 352 353 351 349 350 349 346 346 347 341 341 342 347 346 343 342 340 336 332 328 326 325 325 325 325 322
342 346 344 340 281 323 8 0 353 350 350 349 350 351 354 355 354 354 353 350 350 350 349 348 346 346 345 346 348 343 343 341 341 339 337 334 329 326 324 324 323 321 321